Photometre #43[NE_1.6] Ben_Salem AOT

File : 20221124_43.hum

24/11/2022,06:55:00,TEMP=18.3,BA=5.48,STAT.A=11.0,ExtBa=13.40
24/11/2022,06:58:42,TEMP=18.8,BA=5.48,STAT.A=11.0,ExtBa=12.80
24/11/2022,07:03:06,TEMP=19.1,BA=5.32,STAT.A=11.0,ExtBa=12.50
24/11/2022,07:08:21,TEMP=19.4,BA=5.32,STAT.A=11.0,ExtBa=13.50
24/11/2022,07:14:42,TEMP=19.9,BA=5.52,STAT.A=11.0,ExtBa=13.60
24/11/2022,07:22:38,TEMP=20.5,BA=5.52,STAT.A=11.0,ExtBa=13.60
24/11/2022,07:32:51,TEMP=21.2,BA=5.56,STAT.B=11.0,ExtBa=13.60
24/11/2022,07:42:55,TEMP=22.2,BA=5.56,STAT.A=11.0,ExtBa=10.90
24/11/2022,07:44:48,TEMP=22.2,BA=5.56,STAT.A=11.0,ExtBa=11.10
24/11/2022,07:49:48,TEMP=22.0,BA=5.56,STAT.A=11.0,ExtBa=13.10
24/11/2022,07:57:11,TEMP=22.3,BA=5.60,STAT.A=11.0,ExtBa=12.50
24/11/2022,08:05:49,TEMP=23.0,BA=5.72,STAT.C=11.0,ExtBa=13.60
24/11/2022,08:22:11,TEMP=23.7,BA=5.84,STAT.F,ExtBa=10.30
24/11/2022,08:38:16,TEMP=24.0,BA=5.92,STAT.D=11.0,ExtBa=10.20
24/11/2022,08:40:11,TEMP=24.1,BA=6.00,STAT.D=11.0,ExtBa=10.40
24/11/2022,08:52:21,TEMP=23.7,BA=5.52,STAT.D=11.0,ExtBa=11.40
24/11/2022,09:07:22,TEMP=23.1,BA=5.52,STAT.F,ExtBa=11.60
24/11/2022,09:22:21,TEMP=23.0,BA=5.52,STAT.D=11.0,ExtBa=11.60
24/11/2022,09:37:21,TEMP=23.9,BA=6.52,STAT.D=11.0,ExtBa=11.70
24/11/2022,09:52:16,TEMP=25.8,BA=6.28,STAT.D=11.0,ExtBa=11.10
24/11/2022,10:07:22,TEMP=25.5,BA=6.32,STAT.F,ExtBa=11.50
24/11/2022,10:22:16,TEMP=26.3,BA=6.32,STAT.D=11.0,ExtBa=13.00
24/11/2022,10:37:21,TEMP=25.1,BA=5.52,STAT.D=12.0,ExtBa=11.50
24/11/2022,10:52:21,TEMP=24.0,BA=5.52,STAT.D=11.0,ExtBa=11.40
24/11/2022,11:07:18,TEMP=24.1,BA=5.52,STAT.F,ExtBa=13.00
24/11/2022,11:23:45,TEMP=25.4,BA=5.40,STAT.D=11.0,ExtBa=10.60
24/11/2022,11:37:21,TEMP=25.9,BA=6.20,STAT.D=12.0,ExtBa=11.20
24/11/2022,11:52:21,TEMP=24.9,BA=5.52,STAT.D=12.0,ExtBa=11.30
24/11/2022,12:07:23,TEMP=24.5,BA=5.52,STAT.F,ExtBa=11.30
24/11/2022,12:22:21,TEMP=25.6,BA=6.28,STAT.D=11.0,ExtBa=11.90
24/11/2022,12:37:21,TEMP=26.9,BA=5.84,STAT.D=12.0,ExtBa=11.60
24/11/2022,12:52:21,TEMP=27.8,BA=6.32,STAT.D=12.0,ExtBa=12.40
24/11/2022,13:07:22,TEMP=27.9,BA=5.52,STAT.F,ExtBa=13.50
24/11/2022,13:23:00,TEMP=27.2,BA=6.04,STAT.D=12.0,ExtBa=10.40
24/11/2022,13:37:21,TEMP=25.7,BA=5.48,STAT.D=12.0,ExtBa=10.90
24/11/2022,13:52:20,TEMP=24.5,BA=5.48,STAT.D=12.0,ExtBa=10.80
24/11/2022,14:07:22,TEMP=24.0,BA=5.48,STAT.F,ExtBa=10.80
24/11/2022,14:09:15,TEMP=24.3,BA=5.48,STAT.C=11.0,ExtBa=10.70
24/11/2022,14:17:33,TEMP=23.8,BA=5.36,STAT.A=11.0,ExtBa=10.60
24/11/2022,14:24:56,TEMP=23.6,BA=5.44,STAT.A=11.0,ExtBa=10.60
24/11/2022,14:31:20,TEMP=23.5,BA=5.44,STAT.A=11.0,ExtBa=10.50
24/11/2022,14:36:55,TEMP=23.4,BA=5.44,STAT.A=11.0,ExtBa=10.50
24/11/2022,14:41:52,TEMP=23.3,BA=5.44,STAT.B=11.0,ExtBa=10.50
24/11/2022,14:52:04,TEMP=23.1,BA=5.44,STAT.A=11.0,ExtBa=10.50
24/11/2022,15:00:02,TEMP=22.9,BA=5.44,STAT.A=11.0,ExtBa=10.50
24/11/2022,15:06:23,TEMP=22.8,BA=5.32,STAT.A=11.0,ExtBa=10.50
24/11/2022,15:11:38,TEMP=22.7,BA=5.44,STAT.A=11.0,ExtBa=10.50
24/11/2022,15:16:00,TEMP=22.6,BA=5.44,STAT.A=11.0,ExtBa=10.50
24/11/2022,15:19:44,TEMP=22.6,BA=5.44,STAT.A=11.0,ExtBa=10.50